| time (UTC) | temp F | wind direction | speed MPH | gust MPH | rain 1hr in | rain 24hr in | rain mn in | humidity % | barometer mb |
| 20260507101519 | 53 | 320 | 8.0 | 17.0 | 0.00 | 0.00 | 0.00 | 45 | 1017.1 |
| 20260507100020 | 53 | 336 | 10.0 | 20.0 | 0.00 | 0.00 | 0.00 | 45 | 1016.9 |
| 20260507094513 | 53 | 321 | 8.0 | 17.0 | 0.00 | 0.00 | 0.00 | 45 | 1016.7 |
| 20260507093012 | 54 | 312 | 6.0 | 19.0 | 0.00 | 0.00 | 0.00 | 44 | 1016.7 |
| 20260507091514 | 54 | 284 | 5.0 | 16.0 | 0.00 | 0.00 | 0.00 | 44 | 1016.6 |
| 20260507090010 | 54 | 322 | 3.0 | 20.0 | 0.00 | 0.00 | 0.00 | 44 | 1016.4 |
| 20260507084511 | 54 | 312 | 7.0 | 18.0 | 0.00 | 0.00 | 0.00 | 43 | 1016.2 |
| 20260507083005 | 55 | 319 | 9.0 | 17.0 | 0.00 | 0.00 | 0.00 | 42 | 1016.0 |
| 20260507081504 | 55 | 282 | 7.0 | 15.0 | 0.00 | 0.00 | 0.00 | 42 | 1015.8 |
| 20260507080006 | 55 | 316 | 10.0 | 18.0 | 0.00 | 0.00 | 0.00 | 40 | 1015.4 |
| 20260507074610 | 56 | 310 | 13.0 | 23.0 | 0.00 | 0.00 | 0.00 | 39 | 1014.9 |
| 20260507073056 | 56 | 284 | 14.0 | 25.0 | 0.00 | 0.00 | 0.00 | 39 | 1014.5 |
| 20260507071556 | 56 | 314 | 11.0 | 21.0 | 0.00 | 0.00 | 0.00 | 39 | 1014.4 |
| 20260507070054 | 57 | 316 | 9.0 | 25.0 | 0.00 | 0.00 | 0.00 | 38 | 1014.3 |
| 20260507064554 | 57 | 320 | 12.0 | 23.0 | 0.00 | 0.00 | 0.00 | 37 | 1014.1 |
| 20260507063051 | 59 | 315 | 10.0 | 20.0 | 0.00 | 0.00 | 0.00 | 35 | 1013.8 |
| 20260507061549 | 63 | 325 | 12.0 | 29.0 | 0.00 | 0.00 | 0.00 | 30 | 1013.6 |
| 20260507060052 | 64 | 280 | 13.0 | 26.0 | 0.00 | 0.00 | 0.00 | 28 | 1013.3 |
| 20260507054616 | 65 | 285 | 10.0 | 25.0 | 0.00 | 0.00 | 0.00 | 27 | 1013.5 |
| 20260507053049 | 66 | 299 | 8.0 | 21.0 | 0.00 | 0.00 | 0.00 | 28 | 1013.1 |
| 20260507051543 | 65 | 284 | 13.0 | 26.0 | 0.00 | 0.00 | 0.00 | 27 | 1013.1 |
| 20260507050042 | 67 | 274 | 7.0 | 18.0 | 0.00 | 0.00 | 0.00 | 27 | 1013.1 |
| 20260507044548 | 64 | 314 | 14.0 | 23.0 | 0.00 | 0.00 | 0.00 | 27 | 1013.2 |
| 20260507043045 | 66 | 282 | 12.0 | 27.0 | 0.00 | 0.00 | 0.00 | 25 | 1013.0 |
| 20260507041542 | 66 | 280 | 14.0 | 29.0 | 0.00 | 0.00 | 0.00 | 25 | 1012.6 |
| 20260507040039 | 67 | 293 | 11.0 | 25.0 | 0.00 | 0.00 | 0.00 | 25 | 1012.4 |
| 20260507034537 | 67 | 286 | 8.0 | 22.0 | 0.00 | 0.00 | 0.00 | 24 | 1012.3 |
| 20260507033037 | 68 | 292 | 13.0 | 26.0 | 0.00 | 0.00 | 0.00 | 23 | 1012.2 |
| 20260507031539 | 68 | 268 | 6.0 | 15.0 | 0.00 | 0.00 | 0.00 | 26 | 1012.4 |
| 20260507030046 | 68 | 279 | 7.0 | 25.0 | 0.00 | 0.00 | 0.00 | 26 | 1012.4 |
| 20260507024541 | 68 | 16 | 10.0 | 20.0 | 0.00 | 0.00 | 0.00 | 25 | 1012.5 |
| 20260507023033 | 67 | 304 | 14.0 | 23.0 | 0.00 | 0.00 | 0.00 | 25 | 1012.4 |
| 20260507021531 | 67 | 297 | 11.0 | 27.0 | 0.00 | 0.00 | 0.00 | 25 | 1012.3 |
| 20260507020029 | 67 | 316 | 8.0 | 21.0 | 0.00 | 0.00 | 0.00 | 38 | 1012.5 |
| 20260507014538 | 62 | 333 | 9.0 | 18.0 | 0.00 | 0.00 | 0.00 | 49 | 1012.6 |
| 20260507013024 | 60 | 320 | 10.0 | 21.0 | 0.00 | 0.00 | 0.00 | 52 | 1012.6 |
| 20260507011523 | 61 | 262 | 8.0 | 20.0 | 0.00 | 0.00 | 0.00 | 52 | 1012.7 |
| 20260507010021 | 65 | 330 | 7.0 | 14.0 | 0.00 | 0.00 | 0.00 | 51 | 1012.5 |
| 20260507004521 | 69 | 341 | 5.0 | 12.0 | 0.00 | 0.00 | 0.00 | 47 | 1012.1 |
| 20260507003019 | 69 | 304 | 8.0 | 17.0 | 0.00 | 0.00 | 0.00 | 46 | 1012.4 |
| 20260507001524 | 69 | 293 | 4.0 | 10.0 | 0.00 | 0.00 | 0.00 | 47 | 1012.5 |
| 20260507000025 | 69 | 299 | 5.0 | 9.0 | 0.00 | 0.00 | 0.00 | 47 | 1012.5 |
| 20260506234514 | 68 | 336 | 4.0 | 10.0 | 0.00 | 0.00 | 0.00 | 49 | 1012.4 |
| 20260506233008 | 66 | 51 | 4.0 | 11.0 | 0.00 | 0.00 | 0.00 | 50 | 1012.5 |
| 20260506231505 | 65 | 339 | 5.0 | 14.0 | 0.00 | 0.00 | 0.00 | 52 | 1012.6 |
| 20260506230002 | 65 | 298 | 4.0 | 10.0 | 0.00 | 0.00 | 0.00 | 55 | 1012.6 |
| 20260506224559 | 63 | 349 | 6.0 | 11.0 | 0.00 | 0.00 | 0.00 | 58 | 1012.6 |
| 20260506223055 | 61 | 360 | 3.0 | 9.0 | 0.00 | 0.00 | 0.00 | 66 | 1012.5 |
| 20260506221552 | 56 | 335 | 3.0 | 9.0 | 0.00 | 0.00 | 0.00 | 72 | 1012.5 |
| 20260506220051 | 54 | 336 | 3.0 | 8.0 | 0.00 | 0.00 | 0.00 | 78 | 1012.5 |
| 20260506214550 | 52 | 328 | 2.0 | 8.0 | 0.00 | 0.00 | 0.00 | 83 | 1012.4 |
| 20260506213100 | 51 | 343 | 2.0 | 5.0 | 0.00 | 0.00 | 0.00 | 86 | 1012.3 |
| 20260506211545 | 50 | 310 | 1.0 | 3.0 | 0.00 | 0.00 | 0.00 | 87 | 1012.3 |
| 20260506210043 | 50 | 309 | 0.0 | 4.0 | 0.00 | 0.00 | 0.00 | 87 | 1012.3 |
| 20260506204549 | 50 | 340 | 1.0 | 4.0 | 0.00 | 0.00 | 0.00 | 87 | 1012.2 |
| 20260506203040 | 50 | 309 | 0.0 | 1.0 | 0.00 | 0.00 | 0.00 | 86 | 1012.1 |
| 20260506201538 | 51 | 308 | 1.0 | 3.0 | 0.00 | 0.00 | 0.00 | 86 | 1012.1 |
| 20260506200036 | 51 | 303 | 2.0 | 4.0 | 0.00 | 0.00 | 0.00 | 86 | 1012.2 |
| 20260506194537 | 52 | 289 | 2.0 | 7.0 | 0.00 | 0.00 | 0.00 | 87 | 1012.2 |
| 20260506193033 | 52 | 297 | 2.0 | 5.0 | 0.00 | 0.00 | 0.00 | 88 | 1011.9 |
| 20260506191530 | 52 | 303 | 1.0 | 3.0 | 0.00 | 0.00 | 0.00 | 87 | 1011.8 |
| 20260506190028 | 52 | 299 | 1.0 | 3.0 | 0.00 | 0.00 | 0.00 | 86 | 1011.7 |
| 20260506184525 | 53 | 305 | 1.0 | 4.0 | 0.00 | 0.00 | 0.00 | 86 | 1011.4 |
| 20260506183023 | 54 | 300 | 2.0 | 5.0 | 0.00 | 0.00 | 0.00 | 86 | 1011.4 |
| 20260506181521 | 54 | 301 | 2.0 | 7.0 | 0.00 | 0.00 | 0.00 | 85 | 1011.5 |
| 20260506180019 | 54 | 307 | 4.0 | 8.0 | 0.00 | 0.00 | 0.00 | 85 | 1011.4 |
| 20260506174517 | 55 | 305 | 1.0 | 4.0 | 0.00 | 0.00 | 0.00 | 85 | 1011.3 |
| 20260506173014 | 55 | 310 | 2.0 | 8.0 | 0.00 | 0.00 | 0.00 | 84 | 1011.7 |
| 20260506171512 | 56 | 305 | 3.0 | 7.0 | 0.00 | 0.00 | 0.00 | 84 | 1011.5 |
| 20260506170008 | 56 | 303 | 3.0 | 8.0 | 0.00 | 0.00 | 0.00 | 84 | 1011.5 |
| 20260506164506 | 57 | 307 | 3.0 | 8.0 | 0.00 | 0.00 | 0.00 | 83 | 1011.8 |
| 20260506163003 | 57 | 299 | 3.0 | 8.0 | 0.00 | 0.00 | 0.00 | 84 | 1011.9 |
| 20260506161616 | 58 | 305 | 4.0 | 10.0 | 0.00 | 0.00 | 0.00 | 85 | 1012.0 |
| 20260506160057 | 58 | 294 | 3.0 | 5.0 | 0.00 | 0.00 | 0.00 | 86 | 1012.2 |
| 20260506154610 | 59 | 301 | 3.0 | 7.0 | 0.00 | 0.00 | 0.00 | 86 | 1012.3 |
| 20260506153059 | 59 | 268 | 2.0 | 5.0 | 0.00 | 0.00 | 0.00 | 85 | 1012.3 |
| 20260506151552 | 60 | 301 | 5.0 | 9.0 | 0.00 | 0.00 | 0.00 | 86 | 1012.4 |
| 20260506150049 | 60 | 345 | 2.0 | 9.0 | 0.00 | 0.00 | 0.00 | 87 | 1012.6 |
| 20260506144547 | 60 | 314 | 2.0 | 6.0 | 0.00 | 0.00 | 0.00 | 88 | 1012.6 |
| 20260506143100 | 60 | 333 | 2.0 | 5.0 | 0.00 | 0.00 | 0.00 | 88 | 1012.7 |
| 20260506141544 | 60 | 337 | 2.0 | 8.0 | 0.00 | 0.00 | 0.00 | 88 | 1012.7 |
| 20260506140041 | 60 | 332 | 2.0 | 8.0 | 0.00 | 0.00 | 0.00 | 88 | 1012.8 |
| 20260506134540 | 60 | 310 | 3.0 | 7.0 | 0.00 | 0.00 | 0.00 | 88 | 1012.8 |
| 20260506133040 | 61 | 318 | 3.0 | 9.0 | 0.00 | 0.00 | 0.00 | 88 | 1013.0 |
| 20260506131537 | 61 | 303 | 2.0 | 6.0 | 0.00 | 0.00 | 0.00 | 88 | 1013.1 |
| 20260506130036 | 61 | 291 | 2.0 | 7.0 | 0.00 | 0.00 | 0.00 | 88 | 1013.3 |
| 20260506124535 | 61 | 333 | 3.0 | 8.0 | 0.00 | 0.00 | 0.00 | 87 | 1013.3 |
| 20260506123035 | 62 | 332 | 2.0 | 8.0 | 0.00 | 0.00 | 0.00 | 87 | 1013.6 |
| 20260506121538 | 61 | 324 | 4.0 | 8.0 | 0.00 | 0.00 | 0.00 | 88 | 1013.9 |
| 20260506120029 | 61 | 318 | 1.0 | 4.0 | 0.00 | 0.00 | 0.00 | 88 | 1014.1 |
| 20260506114534 | 61 | 328 | 2.0 | 4.0 | 0.00 | 0.00 | 0.00 | 88 | 1014.2 |
| 20260506113027 | 61 | 336 | 1.0 | 4.0 | 0.00 | 0.00 | 0.00 | 88 | 1014.3 |
| 20260506111525 | 61 | 338 | 1.0 | 4.0 | 0.00 | 0.00 | 0.00 | 89 | 1014.6 |
| 20260506110028 | 61 | 343 | 1.0 | 3.0 | 0.00 | 0.00 | 0.00 | 88 | 1014.6 |
| 20260506104524 | 61 | 353 | 1.0 | 3.0 | 0.00 | 0.00 | 0.00 | 87 | 1014.6 |
| 20260506103023 | 61 | 360 | 0.0 | 3.0 | 0.00 | 0.00 | 0.00 | 87 | 1014.5 |